Regional Weather Roundup
Issued by NWS

Home | Current Version | Previous Version | Graphics & Text | Print | Product List | Glossary On
Versions: 1 2 3 4 5 6 7 8 9 10 11 12 13 14 15 16 17 18 19 20 21 22 23 24 25 26 27 28 29 30 31 32 33 34 35 36 37 38 39 40 41 42 43 44 45 46 47 48 49 50
000
ASUS45 KCYS 302010
RWRWY

WYOMING REGIONAL WEATHER ROUNDUP
NATIONAL WEATHER SERVICE CHEYENNE WY
200 PM MDT SAT MAY 30 2015

NOTE:  "FAIR" INDICATES FEW OR NO CLOUDS BELOW 12,000 FEET
WITH NO SIGNIFICANT WEATHER AND/OR OBSTRUCTIONS TO VISIBILITY.

WYZ001-302100-
YELLOWSTONE NATIONAL PARK

CITY           SKY/WX    TMP DP  RH WIND       PRES   REMARKS
LK YELLOWSTONE   N/A     62  34  35 W12G22    30.24F
W YELLOWSTONE  NOT AVBL

$$
WYZ002>013-054>058-071-098>099-302100-
NORTHERN WYOMING

CITY           SKY/WX    TMP DP  RH WIND       PRES   REMARKS
JACKSON        PTSUNNY   68  37  32 CALM      30.17F
CODY           FAIR      72  39  30 SE5       30.06F
GREYBULL       FAIR      77  36  22 VRB6      30.02F
WORLAND        FAIR      75  41  29 S6        30.04F
SHERIDAN       FAIR      71  53  52 W5        30.04F
BUFFALO        FAIR      72  51  47 SE7       30.08F
GILLETTE       FAIR      66  52  60 S22G33    30.09F
HULETT         FAIR      70  46  43 S10       30.14F
NEWCASTLE      FAIR      61  45  55 SE18G24   30.19F

$$
WYZ014>020-022>026-101>103-302100-
CENTRAL WYOMING

CITY           SKY/WX    TMP DP  RH WIND       PRES   REMARKS
BIG PINEY      FAIR      67  38  34 CALM      30.22F
PINEDALE       FAIR      64  36  34 NW6       30.24F
DUBOIS         FAIR      66  28  24 NW15G28   30.18F
LANDER         FAIR      71  51  49 VRB7      30.11F
RIVERTON       FAIR      70  44  39 E3        30.13F
CASPER         FAIR      72  41  32 SW12G21   30.14F
DOUGLAS        FAIR      67  51  56 SE14      30.17F

$$
WYZ021-027>030-104>119-302100-
SOUTHERN WYOMING

CITY           SKY/WX    TMP DP  RH WIND       PRES   REMARKS
EVANSTON       FAIR      70  42  36 W17G23    30.23F
KEMMERER       FAIR      70  37  30 SW12G21   30.25F
FORT BRIDGER   PTCLDY    73  41  31 W13G24    30.26F
ROCK SPRINGS   FAIR      70  35  27 MISG      30.22F
DIXON          FAIR      69  35  28 W10G16    30.28F
RAWLINS        FAIR      68  33  27 SW15G24   30.24F
SARATOGA       FAIR      68  32  26 W12G18    30.27F
LARAMIE        FAIR      65  38  36 NE7       30.26F
CHEYENNE       FAIR      65  47  52 SE12G21   30.25F
TORRINGTON     FAIR      68  52  56 SE16G23   30.17F
PINE BLUFFS    FAIR      64  46  52 S9        30.25S

$$



USA.gov is the U.S. government's official web portal to all federal, state and local government web resources and services.